Sigfox identifier Datetime Temperature Humidity SNR
003BC6CB 2018-10-09 09:08:47 20.4 39 11.5
003BC6CB 2018-10-09 08:07:55 20.3 39 11.5
003BC6CB 2018-10-09 07:07:05 20.3 39 11.7
003BC6CB 2018-10-09 06:06:13 20.4 39 11.7
003BC6CB 2018-10-09 05:05:25 20.3 39 11.6
003BC6CB 2018-10-09 02:03:03 20.2 39 11.5
003BC6CB 2018-10-09 01:02:13 20.2 39 11.5
003BC6CB 2018-10-09 00:01:27 20.2 39 11.4
003BC6CB 2018-10-08 23:00:35 20.2 39 11.3
003BC6CB 2018-10-08 21:59:45 20.2 39 11.3
003BC6CB 2018-10-08 20:58:56 20.2 39 11.3
003BC6CB 2018-10-08 19:58:09 20.2 39 11.2
003BC6CB 2018-10-08 18:57:18 20.1 39 11.2
003BC6CB 2018-10-08 17:56:27 20.1 39 11.3
003BC6CB 2018-10-08 16:55:39 20 39 11.4
003BC6CB 2018-10-08 14:54:01 20 39 11.3
003BC6CB 2018-10-08 13:53:12 20 39 11.2
003BC6CB 2018-10-08 11:51:35 20 39 11
003BC6CB 2018-10-08 10:50:47 20 39 10.3
003BC6CB 2018-10-08 09:50:03 20 39 10.2
003BC6CB 2018-10-08 08:49:13 20 39 9.6
003BC6CB 2018-10-08 06:47:42 20.1 39 9.6
003BC6CB 2018-10-08 05:46:57 20.2 39 9.6
003BC6CB 2018-10-08 04:46:12 20.2 39 9.4
003BC6CB 2018-10-08 03:45:29 20.2 39 16.8
003BC6CB 2018-10-08 02:44:46 20.2 39 16.8
003BC6CB 2018-10-07 23:42:27 20.2 40 16.8
003BC6CB 2018-10-07 22:41:42 20.2 40 16.8
003BC6CB 2018-10-07 21:41:02 20.3 40 16.8
003BC6CB 2018-10-07 19:39:32 20.2 40 16.8
003BC6CB 2018-10-07 17:38:01 20.2 40 16.8
003BC6CB 2018-10-07 16:37:11 20.3 40 19.4
003BC6CB 2018-10-07 15:36:27 20.3 40 19.4
003BC6CB 2018-10-07 14:35:38 20.4 40 19.4
003BC6CB 2018-10-07 12:34:10 20.4 40 19.4
003BC6CB 2018-10-07 11:33:23 20.5 40 19.4
003BC6CB 2018-10-07 09:31:57 20.4 40 19.4
003BC6CB 2018-10-07 06:29:36 20.5 40 19.4
003BC6CB 2018-10-07 05:28:49 20.5 40 19.4
003BC6CB 2018-10-07 03:27:11 20.5 40 19.4
003BC6CB 2018-10-07 02:26:19 20.6 40 19.4
003BC6CB 2018-10-07 01:25:32 20.6 40 19.4
003BC6CB 2018-10-06 23:24:03 20.6 40 19.4
003BC6CB 2018-10-06 22:23:14 20.6 40 19.4
003BC6CB 2018-10-06 21:22:30 20.6 40 19.4
003BC6CB 2018-10-06 19:20:49 20.6 40 19.4
003BC6CB 2018-10-06 17:19:16 20.6 40 19.5
003BC6CB 2018-10-06 15:17:46 20.6 40 19.5
003BC6CB 2018-10-06 14:16:59 20.6 40 19.5
003BC6CB 2018-10-06 13:16:13 20.6 40 16.9
003BC6CB 2018-10-06 12:15:30 20.6 40 16.9
003BC6CB 2018-10-06 10:13:53 20.8 40 16.9
003BC6CB 2018-10-06 09:13:09 20.8 40 16.8
003BC6CB 2018-10-06 08:12:17 20.7 40 16.9
003BC6CB 2018-10-06 07:11:35 20.8 40 16.9
003BC6CB 2018-10-06 06:10:42 20.9 40 16.9
003BC6CB 2018-10-06 05:09:58 20.8 40 9.7
003BC6CB 2018-10-06 03:08:27 20.9 40 9.7
003BC6CB 2018-10-06 02:07:43 20.8 40 9.9
003BC6CB 2018-10-06 01:06:53 20.9 40 9.8
003BC6CB 2018-10-06 00:06:09 20.9 40 10
003BC6CB 2018-10-05 23:05:22 20.8 39 10.8
003BC6CB 2018-10-05 22:04:36 20.8 39 11.1
003BC6CB 2018-10-05 21:03:49 20.9 39 12.6
003BC6CB 2018-10-05 19:02:19 20.9 39 12.5
003BC6CB 2018-10-05 18:01:32 20.7 39 13
003BC6CB 2018-10-05 16:00:01 20.7 39 13.9
003BC6CB 2018-10-05 14:59:10 20.7 38 14.1
003BC6CB 2018-10-05 13:58:27 20.7 38 15.1
003BC6CB 2018-10-05 12:57:42 20.6 38 15.1
003BC6CB 2018-10-05 10:56:07 20.4 33 15.2
003BC6CB 2018-10-05 04:51:29 20.4 33 15.3
003BC6CB 2018-10-05 03:50:41 20.4 33 15.4
003BC6CB 2018-10-05 02:49:57 20.5 33 15.7
003BC6CB 2018-10-05 01:49:07 20.5 33 16.2
003BC6CB 2018-10-05 00:48:21 20.5 33 16.4
003BC6CB 2018-10-04 23:47:32 20.5 33 16.5
003BC6CB 2018-10-04 22:46:43 20.5 33 16.6
003BC6CB 2018-10-04 21:46:02 20.4 33 16.9
003BC6CB 2018-10-04 20:45:19 20.4 32 17.1
003BC6CB 2018-10-04 18:43:52 20.5 32 17.3
003BC6CB 2018-10-04 17:43:11 20.5 32 17.3
003BC6CB 2018-10-04 16:42:27 20.5 32 17.3
003BC6CB 2018-10-04 14:41:02 20.6 32 17.2
003BC6CB 2018-10-04 13:40:19 20.5 32 17.4
003BC6CB 2018-10-04 12:39:32 20.5 32 17.5
003BC6CB 2018-10-04 11:38:48 20.3 33 17.5
003BC6CB 2018-10-04 10:38:03 20.2 33 17.6
003BC6CB 2018-10-04 09:37:17 20.2 34 17.3
003BC6CB 2018-10-04 08:36:31 20 34 17.5
003BC6CB 2018-10-04 07:35:46 20.1 36 17.5
003BC6CB 2018-10-04 06:35:00 20.1 37 17.2
003BC6CB 2018-10-04 05:34:16 20.2 37 17.3
003BC6CB 2018-10-04 04:33:32 20.2 38 16.5
003BC6CB 2018-10-04 03:32:43 20.2 38 16.8
003BC6CB 2018-10-04 02:31:54 20.2 39 17
003BC6CB 2018-10-04 01:31:07 20.2 39 17
003BC6CB 2018-10-04 00:30:19 20.2 40 17.2
003BC6CB 2018-10-03 23:29:30 20.3 40 17
003BC6CB 2018-10-03 22:28:40 20.4 41 16.2
003BC6CB 2018-10-03 21:27:51 20.4 41 16
003BC6CB 2018-10-03 20:27:03 20.4 41 16.1
003BC6CB 2018-10-03 19:26:14 20.4 41 16.4
003BC6CB 2018-10-03 18:25:26 20.4 42 15.2
003BC6CB 2018-10-03 17:24:36 20.5 43 14.2
003BC6CB 2018-10-03 16:23:47 20.6 44 8.6
003BC6CB 2018-10-03 15:22:59 20.6 44 9.5
003BC6CB 2018-10-03 14:22:07 20.6 43 8.4
003BC6CB 2018-10-03 13:21:15 20.4 50 0